Temperature
26 27 27 27 27 27 26 27 27 27 28 28 28 28 28 26 26 26 25 25 24 22 21 21 20 20 20 20 19 20 20 20 20 20 19 19 19 19 18 18 18 18 18 18
26 26 26 26 26 26 26 26 27 27 27 27 27 27 27 26 25 23 23 23 22 21 20 20 20 20 20 20 20 20 20 20 20 20 19 19 19 18 18 18 18 18 18 18
26 26 26 26 26 26 26 26 26 26 27 28 27 27 27 26 25 23 22 21 21 20 20 19 19 19 19 19 19 19 19 20 20 19 19 19 18 18 18 18 18 18 17 17
26 26 26 26 26 26 26 27 26 26 26 27 27 26 27 27 26 25 23 22 21 20 19 19 18 18 18 18 18 18 19 19 19 19 19 18 18 18 18 18 18 17 17 17
26 26 26 26 26 26 26 26 26 26 26 26 26 26 27 26 26 25 24 22 21 20 19 19 18 18 17 17 17 17 18 18 18 18 18 18 18 18 18 17 17 17 17 16
26 26 26 26 26 26 26 26 26 26 26 25 26 25 26 27 25 25 24 22 21 20 19 19 18 17 17 17 17 17 17 17 17 17 17 17 17 17 17 17 17 16 16 16
25 26 26 26 26 26 26 25 24 24 25 25 25 24 25 25 24 24 23 22 21 20 20 19 18 17 17 17 16 16 16 16 16 16 16 16 16 16 16 16 16 16 15 15
24 25 26 26 26 25 25 24 23 22 23 24 25 24 26 24 23 22 21 21 20 20 20 19 18 17 17 16 16 16 15 15 15 15 15 15 15 15 15 15 15 15 15 14
24 24 25 25 26 26 25 25 25 23 23 23 24 25 25 23 23 22 22 21 21 20 19 18 18 17 17 16 15 15 15 14 14 15 15 15 15 15 15 15 14 14 14 14
25 24 26 25 25 25 25 25 24 23 22 22 24 24 24 24 23 24 23 22 21 20 19 18 17 17 16 15 15 14 14 14 14 14 14 14 14 14 14 14 14 14 14 14
26 24 25 25 24 25 24 24 24 23 23 22 22 24 25 24 23 23 23 22 21 20 19 18 17 16 15 15 14 14 14 14 13 13 13 13 13 13 13 13 13 13 13 13
25 25 24 25 25 24 24 24 23 22 22 22 22 23 25 24 23 22 22 21 20 19 18 17 16 15 15 14 14 13 13 13 13 13 13 13 12 12 12 12 12 12 12 12
24 23 23 24 24 23 23 23 23 23 22 22 22 23 25 23 23 22 22 21 19 18 17 17 16 15 14 14 13 13 13 13 12 12 12 12 12 12 12 11 11 12 12 12
23 23 23 22 23 24 24 24 23 22 22 22 22 23 24 24 23 23 22 20 19 18 17 16 15 15 14 13 13 13 13 12 12 12 12 12 12 11 11 11 11 11 11 11
23 23 23 23 24 24 23 23 23 23 22 22 22 23 23 23 23 22 21 20 19 18 18 16 15 15 14 13 12 12 12 12 12 12 12 11 11 11 11 11 11 11 11 11
22 22 22 22 23 23 23 23 23 23 23 23 22 22 24 23 22 21 20 20 19 19 18 17 15 14 14 13 13 12 12 12 12 12 11 11 11 11 11 11 11 11 11 11
23 21 21 21 23 22 22 23 23 23 23 23 22 23 24 23 22 21 20 20 19 18 18 17 15 14 14 13 13 12 12 12 12 11 11 11 11 11 11 11 11 11 11 11
21 20 21 21 21 20 23 24 23 23 23 23 23 23 23 23 22 20 19 19 19 18 17 16 15 14 14 13 12 12 12 12 12 12 11 11 11 11 11 11 11 11 11 11
20 20 21 21 21 22 23 23 23 22 22 23 23 23 23 22 20 21 20 19 18 17 17 16 15 14 14 13 12 12 12 12 12 11 11 11 11 11 11 11 11 11 11 10
19 19 21 21 20 20 22 23 21 21 21 23 22 22 22 21 21 22 20 19 18 17 16 15 15 14 13 13 12 12 12 12 12 12 11 11 11 11 11 11 11 11 10 10
20 20 20 20 20 21 22 21 21 20 21 20 20 21 21 21 21 21 19 18 17 16 16 15 14 14 13 12 12 12 12 12 12 11 11 11 11 11 11 11 10 10 10 10
20 20 20 19 19 20 21 20 19 19 19 19 19 19 20 20 20 20 19 18 17 16 16 15 14 13 13 12 12 12 12 11 11 11 11 11 11 11 10 10 10 10 10 10
20 20 20 19 19 19 18 18 17 16 16 17 18 18 18 19 19 19 19 18 17 16 16 15 14 13 13 12 12 12 11 11 11 11 11 11 10 10 10 10 10 10 10 10
20 19 18 17 18 17 16 15 14 14 14 15 16 17 17 18 18 18 18 18 17 16 16 15 14 13 13 12 12 11 11 11 11 11 11 10 10 10 10 10 10 10 10 11
17 17 16 15 15 13 13 11 11 11 12 13 14 15 16 17 17 17 18 18 17 16 15 15 14 14 13 12 12 11 11 11 11 11 10 10 10 10 10 10 10 10 10 11
12 12 11 11 9 10 9 9 9 9 10 10 11 12 13 14 14 15 16 17 17 16 15 15 14 14 13 12 12 11 11 11 10 10 10 11 11 10 10 10 10 10 9 10
Wind_Speed
3 3 0 2 1 2 2 4 4 2 2 5 6 7 4 5 6 7 7 5 3 2 1 1 4 7 8 9 10 10 11 10 9 8 9 10 10 10 9 8 7 6 6 6
5 3 3 1 2 3 4 5 4 3 2 6 8 9 2 2 5 6 6 6 5 3 2 1 2 5 7 9 10 10 12 11 11 10 9 8 8 7 7 5 4 5 5 5
0 3 2 1 2 3 3 4 5 7 8 9 10 11 7 4 3 4 5 6 6 5 4 3 2 2 3 5 6 8 9 10 11 11 9 8 7 6 6 7 5 5 4 3
1 0 2 3 2 5 5 3 7 9 12 11 8 14 11 5 4 3 5 6 6 6 5 5 4 4 4 5 5 6 7 8 9 10 11 13 11 11 11 7 7 7 7 7
2 3 5 6 5 6 7 6 10 13 15 16 15 14 10 6 7 2 4 6 6 6 6 6 6 6 6 5 5 4 5 6 7 9 11 12 12 11 8 8 9 9 8 8
4 4 5 5 4 5 6 9 12 13 13 15 11 10 10 5 3 3 3 5 5 6 6 6 6 6 6 6 6 5 5 5 5 6 8 10 12 11 10 9 9 8 6 7
3 3 3 5 7 4 6 9 9 7 7 6 3 8 7 2 3 2 1 2 4 5 6 7 8 8 8 8 7 7 7 6 6 7 8 9 10 10 10 10 9 8 7 6
4 2 1 2 4 5 6 8 8 8 11 13 12 10 4 3 3 3 3 4 5 6 7 8 9 9 9 9 8 8 8 7 7 7 7 7 7 6 6 7 7 7 6 5
5 4 2 2 4 7 7 7 8 12 17 16 10 7 5 5 6 6 6 7 8 8 8 9 10 10 10 10 9 9 8 8 7 6 5 5 6 5 5 6 7 6 5 5
6 9 6 4 6 4 6 8 8 8 8 11 11 11 7 4 5 6 7 9 9 9 9 10 10 10 10 9 9 8 7 7 6 5 4 3 3 3 5 5 6 6 6 5
8 9 8 6 9 10 7 8 8 9 9 11 13 8 2 4 6 8 10 10 9 9 10 9 9 9 9 8 8 6 5 5 4 3 2 2 2 2 3 4 5 5 5 4
5 8 11 11 4 4 9 11 10 11 12 13 15 13 4 5 7 9 12 11 10 9 8 8 8 8 7 7 6 5 4 3 2 2 1 1 2 3 3 3 3 4 4 4
3 7 12 12 7 7 8 10 12 12 13 15 17 13 2 5 11 13 13 12 10 8 8 7 7 6 5 5 4 3 2 1 1 1 1 3 3 3 3 2 2 3 4 4
5 11 15 17 16 15 13 14 14 15 15 18 20 21 19 18 18 16 13 11 9 8 7 7 6 5 4 4 3 2 1 1 1 2 3 4 4 4 3 3 3 3 4 5
5 12 15 17 18 18 19 20 19 19 21 23 24 23 21 19 16 14 11 9 9 8 8 7 6 5 4 4 3 3 2 2 2 3 4 6 6 6 5 5 5 4 4 5
5 11 15 17 18 18 20 22 23 23 23 23 24 23 19 15 11 10 9 9 10 10 8 7 5 5 5 5 4 4 4 4 4 5 6 7 8 8 8 8 7 6 5 6
9 10 14 16 15 15 14 14 14 15 16 18 20 18 16 15 14 11 9 9 10 10 9 7 6 6 6 6 5 5 5 5 4 5 7 8 9 10 10 10 9 8 7 7
9 10 8 11 9 9 7 6 9 13 15 16 17 17 17 17 13 10 10 9 10 9 9 8 7 7 7 7 7 6 5 5 5 6 6 8 9 10 10 10 10 9 8 7
5 6 7 8 11 12 10 9 10 12 16 16 15 15 15 12 10 13 11 9 9 8 8 7 7 7 7 8 7 7 7 6 6 7 7 8 8 9 10 10 10 9 8 8
4 6 7 9 11 9 8 9 7 9 14 9 10 13 14 11 13 12 3 6 8 8 7 7 7 8 8 8 7 8 8 7 7 7 7 8 8 9 10 10 10 9 8 8
5 7 10 12 13 9 7 9 9 10 12 18 18 18 18 17 16 15 8 7 8 9 9 9 9 9 9 9 8 9 8 8 7 6 7 8 8 8 9 9 9 9 9 9
8 7 7 7 8 4 12 15 14 18 23 24 23 23 22 21 20 18 14 11 10 10 11 11 10 10 10 9 9 10 9 7 7 7 8 9 8 8 8 9 9 9 10 10
5 6 8 8 9 14 19 19 20 22 24 24 24 24 23 23 22 20 18 14 13 13 12 13 13 12 11 11 11 11 9 8 8 9 10 9 9 8 9 10 11 10 10 10
8 6 8 10 10 16 18 20 22 23 24 24 24 24 23 23 22 21 18 15 13 14 14 14 14 13 13 12 12 11 9 9 10 10 10 10 10 10 9 8 10 10 11 10
9 8 8 11 11 14 15 22 24 25 24 24 24 22 21 21 21 19 17 16 13 13 14 15 15 15 14 14 13 12 11 11 11 11 11 11 10 10 9 9 7 8 8 7
7 6 6 6 12 12 13 18 21 22 23 23 23 22 21 19 19 18 17 15 13 13 14 16 17 17 16 15 14 13 12 12 12 11 11 10 10 9 9 9 8 7 5 8
Wind_Direction
194 222 90 29 341 334 282 277 278 293 337 288 281 288 316 1 11 16 15 9 4 355 10 239 218 218 218 217 217 218 222 218 218 222 227 231 236 242 245 251 256 257 263 267
196 122 54 41 178 219 237 261 270 248 284 293 291 284 253 41 38 29 30 30 29 37 46 70 203 209 215 215 217 220 220 221 220 223 225 232 241 245 238 235 241 248 253 264
175 64 42 187 187 230 241 280 304 304 300 268 279 271 211 176 123 77 63 54 47 35 25 22 358 292 254 243 241 238 231 227 227 229 230 230 231 232 227 220 220 222 223 238
239 140 283 268 266 284 274 311 297 292 290 290 289 288 270 215 182 116 71 58 50 40 26 15 0 345 325 305 287 271 260 248 239 234 231 227 226 230 230 218 210 203 197 201
262 276 276 271 284 289 301 311 290 286 284 282 275 274 275 196 221 147 72 55 46 36 22 10 358 346 338 325 309 291 276 267 255 247 240 233 234 234 229 219 209 200 195 198
287 270 272 284 282 284 292 280 273 263 266 269 275 279 278 246 211 154 89 54 35 21 6 355 344 337 332 329 322 307 288 277 262 251 244 240 240 237 227 219 210 197 186 184
284 239 220 253 261 231 279 301 296 275 253 277 338 284 277 93 144 170 55 7 357 347 340 336 333 329 324 321 319 311 299 286 273 260 250 245 242 238 229 219 206 192 183 181
295 274 170 243 293 309 313 307 306 303 300 304 297 270 286 127 177 207 252 287 299 305 313 315 316 316 312 310 308 302 295 287 280 271 262 252 241 231 220 203 189 181 179 172
291 297 168 233 278 291 294 293 316 293 284 282 276 263 265 183 212 232 253 270 284 293 298 300 303 304 303 301 301 299 293 287 284 278 272 258 242 224 198 177 169 161 159 157
285 287 266 220 234 227 278 302 284 282 293 289 281 279 272 214 243 263 277 287 293 293 294 297 297 296 295 295 297 298 295 293 286 271 255 239 230 202 175 164 155 151 148 147
271 277 274 240 254 280 266 268 279 283 277 284 290 294 355 264 282 294 300 302 296 292 295 298 299 297 294 292 293 292 292 297 295 282 258 230 191 158 153 142 139 141 138 146
271 279 283 277 272 267 269 272 270 274 280 270 274 284 297 262 276 288 296 297 293 289 294 299 302 300 296 294 295 290 285 293 292 266 232 198 155 137 136 133 133 131 133 146
262 271 281 275 229 215 238 249 258 267 272 271 272 276 283 249 274 287 292 292 288 283 289 297 299 296 291 290 289 281 278 290 286 250 178 153 135 125 114 109 115 126 133 133
262 269 274 282 292 298 281 270 259 260 266 272 271 281 290 294 297 296 295 289 281 280 285 292 292 281 275 270 265 257 224 212 219 179 144 140 135 134 138 142 135 133 142 143
251 273 278 280 285 286 282 279 273 260 260 271 280 286 294 302 302 298 292 284 277 278 282 286 283 272 258 244 238 232 225 209 204 182 168 162 160 159 160 156 152 154 154 143
255 280 286 283 282 282 279 275 271 269 267 267 273 279 287 295 295 287 276 271 274 279 280 279 267 254 241 232 226 222 232 222 209 196 187 174 169 168 167 164 160 156 147 136
261 274 287 286 291 290 277 276 276 273 268 268 272 281 292 295 291 284 276 271 275 277 275 270 258 245 236 228 222 228 229 230 224 203 189 180 177 172 171 167 162 157 150 141
265 272 270 283 291 267 288 316 291 286 282 280 278 282 289 292 291 280 267 269 273 270 267 261 253 241 232 225 219 228 231 231 224 207 191 180 177 172 169 168 162 154 150 143
239 246 266 276 283 284 291 298 298 292 290 291 291 293 295 300 288 271 252 243 254 260 258 255 246 237 228 224 223 229 233 230 222 209 195 184 179 173 171 170 161 154 151 145
189 227 260 272 284 288 314 3 347 301 286 323 326 314 307 296 284 297 295 210 225 233 234 233 231 227 221 220 222 232 238 230 222 207 189 177 177 176 173 164 159 156 152 149
252 248 256 273 275 277 343 358 323 295 325 341 324 312 303 292 286 299 289 238 221 217 215 214 218 218 217 214 218 233 239 231 220 196 179 170 169 171 168 161 159 159 159 153
290 283 276 275 273 285 8 339 327 318 317 312 307 302 298 295 290 285 275 254 233 220 210 205 207 211 210 212 218 231 236 226 210 194 180 170 169 172 165 165 165 164 158 156
262 297 306 292 291 328 336 328 326 323 315 308 303 299 297 295 291 287 278 262 241 226 213 203 203 207 206 208 218 232 230 215 206 198 187 176 172 175 172 174 170 169 174 176
285 319 293 291 296 327 331 338 337 332 323 316 309 302 296 292 291 287 280 269 247 226 212 203 201 205 206 207 215 226 224 208 206 200 189 180 178 180 180 184 181 182 184 183
337 325 309 291 321 335 340 346 342 337 334 329 323 315 307 301 294 289 283 273 254 230 213 202 201 203 205 204 209 215 212 205 206 200 191 188 187 187 183 190 183 195 189 181
13 4 341 332 343 327 337 346 345 343 341 339 337 334 331 325 316 305 294 283 265 238 215 206 203 202 202 201 204 207 205 204 206 200 195 194 194 186 189 182 172 65 72 92
Height
1521 1516 1515 1516 1515 1516 1517 1517 1515 1513 1511 1510 1508 1507 1507 1509 1507 1506 1506 1506 1506 1508 1509 1510 1511 1512 1514 1515 1517 1518 1520 1522 1523 1524 1525 1526 1527 1529 1530 1530 1531 1531 1532 1532
1517 1517 1518 1517 1517 1517 1517 1517 1514 1511 1510 1510 1509 1506 1505 1509 1509 1509 1508 1507 1507 1507 1508 1508 1509 1510 1511 1511 1512 1514 1515 1516 1518 1519 1520 1520 1522 1523 1523 1524 1525 1525 1526 1527
1517 1517 1517 1516 1516 1516 1515 1515 1515 1515 1510 1505 1506 1504 1502 1504 1507 1509 1509 1508 1508 1508 1508 1508 1508 1508 1509 1509 1509 1510 1510 1510 1511 1512 1513 1514 1515 1516 1516 1517 1518 1518 1519 1520
1517 1517 1517 1515 1515 1515 1515 1512 1514 1514 1514 1508 1507 1512 1498 1496 1502 1506 1508 1508 1508 1509 1508 1508 1507 1507 1506 1506 1506 1505 1505 1505 1505 1506 1507 1507 1507 1507 1508 1509 1510 1511 1513 1513
1517 1517 1517 1517 1515 1515 1513 1513 1513 1511 1511 1510 1503 1505 1494 1495 1499 1503 1506 1508 1508 1509 1508 1508 1507 1506 1504 1504 1502 1502 1501 1500 1500 1500 1500 1500 1501 1501 1501 1502 1503 1503 1504 1506
1516 1516 1515 1514 1513 1514 1513 1513 1509 1507 1507 1514 1502 1507 1500 1489 1496 1501 1506 1507 1508 1508 1508 1507 1506 1505 1503 1501 1500 1499 1497 1496 1496 1495 1495 1494 1495 1495 1495 1495 1496 1497 1498 1499
1517 1513 1512 1514 1512 1512 1512 1516 1518 1515 1510 1507 1500 1507 1498 1493 1499 1503 1505 1507 1507 1508 1507 1506 1505 1503 1501 1500 1498 1496 1494 1493 1492 1491 1490 1490 1489 1489 1489 1490 1491 1492 1493 1494
1522 1519 1511 1512 1512 1514 1513 1517 1527 1533 1522 1509 1501 1503 1492 1496 1501 1504 1506 1506 1506 1506 1506 1505 1503 1501 1499 1497 1495 1493 1491 1489 1488 1487 1486 1485 1484 1484 1485 1485 1486 1488 1490 1491
1518 1519 1512 1513 1513 1512 1514 1513 1512 1521 1515 1515 1501 1492 1491 1497 1500 1502 1503 1503 1503 1504 1503 1502 1501 1499 1496 1494 1492 1490 1488 1486 1484 1483 1482 1481 1481 1481 1481 1482 1483 1484 1486 1487
1512 1519 1509 1511 1513 1513 1512 1511 1514 1518 1525 1518 1502 1495 1493 1492 1495 1496 1498 1499 1500 1501 1500 1499 1497 1495 1493 1491 1489 1487 1485 1483 1481 1480 1479 1479 1478 1478 1479 1479 1480 1481 1483 1485
1510 1516 1511 1509 1511 1509 1511 1512 1512 1511 1514 1520 1514 1499 1486 1491 1493 1494 1495 1496 1497 1497 1496 1495 1494 1492 1489 1487 1485 1483 1482 1480 1478 1478 1477 1476 1477 1477 1477 1478 1479 1480 1482 1484
1511 1511 1513 1506 1503 1509 1509 1510 1511 1518 1515 1510 1511 1502 1484 1489 1492 1493 1494 1494 1493 1494 1493 1491 1490 1488 1486 1484 1482 1480 1479 1477 1476 1476 1475 1474 1475 1476 1477 1478 1479 1480 1481 1483
1512 1516 1518 1509 1508 1508 1507 1505 1506 1507 1509 1507 1507 1497 1483 1488 1488 1488 1489 1490 1490 1490 1489 1488 1486 1485 1483 1481 1480 1478 1477 1475 1475 1474 1473 1473 1474 1475 1476 1478 1480 1480 1482 1484
1514 1513 1516 1517 1506 1499 1500 1499 1500 1504 1506 1500 1495 1488 1482 1481 1481 1482 1483 1485 1486 1485 1485 1484 1483 1481 1480 1479 1478 1477 1475 1474 1474 1473 1473 1473 1474 1475 1477 1479 1480 1481 1483 1484
1512 1509 1505 1501 1498 1497 1497 1496 1493 1495 1495 1496 1488 1484 1479 1477 1478 1479 1480 1481 1481 1481 1481 1480 1479 1478 1477 1477 1476 1475 1474 1473 1473 1472 1472 1472 1474 1475 1477 1479 1481 1483 1484 1486
1510 1509 1505 1502 1497 1494 1494 1490 1488 1487 1485 1484 1482 1480 1475 1474 1475 1476 1477 1477 1477 1477 1477 1476 1476 1475 1475 1475 1474 1474 1473 1472 1472 1472 1472 1472 1474 1475 1477 1479 1481 1483 1485 1486
1504 1508 1508 1502 1493 1494 1493 1482 1480 1478 1476 1477 1477 1474 1470 1470 1471 1472 1473 1473 1473 1473 1473 1473 1473 1472 1472 1472 1472 1472 1472 1471 1471 1471 1471 1472 1473 1475 1477 1479 1481 1483 1485 1486
1506 1507 1505 1498 1497 1503 1482 1474 1476 1476 1473 1470 1469 1468 1469 1468 1469 1470 1469 1469 1469 1469 1469 1469 1470 1469 1470 1470 1470 1470 1470 1470 1470 1470 1470 1471 1472 1474 1476 1478 1480 1482 1484 1486
1505 1505 1500 1497 1495 1488 1478 1474 1474 1476 1473 1468 1466 1466 1466 1465 1466 1464 1463 1464 1465 1465 1466 1466 1466 1467 1467 1467 1468 1468 1468 1468 1468 1468 1469 1470 1471 1473 1475 1477 1479 1481 1484 1486
1505 1504 1500 1495 1501 1496 1480 1475 1478 1478 1475 1466 1466 1466 1465 1464 1462 1457 1458 1460 1460 1461 1462 1462 1463 1463 1464 1464 1465 1466 1466 1466 1466 1466 1467 1468 1470 1471 1474 1476 1478 1480 1483 1485
1498 1498 1498 1495 1495 1483 1476 1480 1480 1482 1475 1472 1471 1468 1466 1462 1460 1458 1457 1457 1457 1457 1457 1458 1458 1459 1460 1461 1462 1463 1463 1463 1464 1464 1465 1466 1468 1470 1472 1474 1476 1479 1482 1484
1496 1493 1493 1493 1495 1488 1481 1482 1484 1483 1479 1475 1471 1467 1463 1459 1456 1454 1453 1453 1452 1452 1452 1452 1454 1455 1456 1457 1459 1459 1460 1460 1461 1462 1463 1464 1466 1469 1471 1472 1475 1478 1480 1483
1494 1492 1491 1492 1490 1486 1487 1488 1486 1484 1478 1473 1468 1463 1459 1455 1451 1449 1447 1447 1446 1446 1446 1447 1448 1450 1452 1453 1454 1456 1456 1457 1458 1459 1460 1462 1464 1467 1469 1471 1473 1476 1479 1482
1490 1493 1494 1493 1488 1491 1490 1488 1486 1482 1477 1470 1464 1459 1454 1449 1446 1443 1441 1440 1439 1439 1439 1440 1442 1444 1446 1448 1450 1451 1453 1453 1454 1456 1458 1460 1462 1464 1466 1468 1471 1474 1477 1480
1498 1497 1497 1495 1493 1494 1492 1490 1486 1480 1474 1467 1461 1455 1450 1445 1441 1438 1435 1434 1433 1432 1432 1433 1435 1437 1440 1442 1445 1447 1448 1449 1451 1453 1455 1457 1459 1462 1464 1466 1469 1471 1474 1477
1509 1509 1508 1505 1506 1502 1497 1493 1487 1481 1474 1467 1459 1452 1446 1442 1437 1433 1430 1428 1426 1426 1425 1426 1428 1430 1433 1436 1439 1441 1443 1445 1447 1449 1451 1454 1457 1459 1461 1463 1466 1467 1470 1473